PIMOHWEATHER Station Historical Data
Daily Summary for June 19, 2020 Units:  Metric    English   Both
Daily Weekly Monthly Yearly
  High: Low: Average:
Temperature: 33.0 °C 26.0 °C 28.1 °C
Dew Point: 27.0 °C 24.0 °C 25.3 °C
Humidity: 95% 72% 85%
Wind Speed: 21km/h 0km/h 2.4km/h
Wind Gust: 28km/h - -
Wind- - SE
Pressure: 1010.7 hPa 1006.4 hPa -
Precipitation: 0.51 mm    
 
 
Tabular Data for June 19, 2020
Time Temperature Dew Point Pressure Wind Wind Speed Wind Gust Humidity Rainfall Rate (Hourly) solar
00:04 28.0 °C 26.0 °C 1008.5 hPa Calm     84% 0.00 mm 0.00 W/m2
00:09 28.0 °C 26.0 °C 1008.5 hPa Calm     84% 0.00 mm 0.00 W/m2
00:14 28.0 °C 26.0 °C 1008.1 hPa NNE 7 km/h 8 km/h 84% 0.00 mm 0.00 W/m2
00:19 28.0 °C 26.0 °C 1008.1 hPa NNE 9 km/h 12 km/h 85% 0.00 mm 0.00 W/m2
00:24 28.0 °C 26.0 °C 1008.1 hPa North 10 km/h 12 km/h 85% 0.00 mm 0.00 W/m2
00:29 28.0 °C 26.0 °C 1008.1 hPa NNE 5 km/h 8 km/h 85% 0.00 mm 0.00 W/m2
00:34 28.0 °C 26.0 °C 1008.1 hPa NNE 9 km/h 12 km/h 85% 0.00 mm 0.00 W/m2
00:39 28.0 °C 26.0 °C 1008.1 hPa North 8 km/h 12 km/h 85% 0.00 mm 0.00 W/m2
00:44 28.0 °C 26.0 °C 1008.1 hPa NNE 6 km/h 8 km/h 85% 0.00 mm 0.00 W/m2
00:49 28.0 °C 25.0 °C 1008.1 hPa NNE 4 km/h 8 km/h 85% 0.00 mm 0.00 W/m2
00:54 28.0 °C 25.0 °C 1008.1 hPa North 5 km/h 8 km/h 85% 0.00 mm 0.00 W/m2
00:59 28.0 °C 25.0 °C 1008.5 hPa Calm     86% 0.00 mm 0.00 W/m2
01:04 28.0 °C 25.0 °C 1008.5 hPa Calm     86% 0.00 mm 0.00 W/m2
01:09 28.0 °C 25.0 °C 1008.1 hPa Calm     87% 0.00 mm 0.00 W/m2
01:14 28.0 °C 25.0 °C 1008.1 hPa Calm     87% 0.00 mm 0.00 W/m2
01:19 28.0 °C 25.0 °C 1008.5 hPa Calm   4 km/h 87% 0.00 mm 0.00 W/m2
01:24 28.0 °C 25.0 °C 1008.8 hPa NNE 3 km/h 8 km/h 87% 0.00 mm 0.00 W/m2
01:29 28.0 °C 25.0 °C 1008.8 hPa North 3 km/h 4 km/h 87% 0.00 mm 0.00 W/m2
01:34 28.0 °C 25.0 °C 1008.1 hPa Calm     88% 0.00 mm 0.00 W/m2
01:39 28.0 °C 25.0 °C 1008.1 hPa North 4 km/h 8 km/h 88% 0.00 mm 0.00 W/m2
01:44 28.0 °C 25.0 °C 1008.1 hPa Calm     88% 0.00 mm 0.00 W/m2
01:49 28.0 °C 26.0 °C 1007.8 hPa NNW 3 km/h 4 km/h 89% 0.00 mm 0.00 W/m2
01:54 27.0 °C 26.0 °C 1007.8 hPa North 6 km/h 8 km/h 90% 0.00 mm 0.00 W/m2
01:59 27.0 °C 26.0 °C 1008.1 hPa Calm     90% 0.00 mm 0.00 W/m2
02:04 27.0 °C 26.0 °C 1008.1 hPa North 6 km/h 12 km/h 90% 0.00 mm 0.00 W/m2
02:09 27.0 °C 26.0 °C 1008.1 hPa NNW 2 km/h 8 km/h 90% 0.00 mm 0.00 W/m2
02:14 27.0 °C 26.0 °C 1007.8 hPa North 8 km/h 8 km/h 90% 0.00 mm 0.00 W/m2
02:19 27.0 °C 26.0 °C 1007.5 hPa Calm     90% 0.00 mm 0.00 W/m2
02:24 27.0 °C 26.0 °C 1007.5 hPa Calm     90% 0.00 mm 0.00 W/m2
02:29 28.0 °C 26.0 °C 1007.1 hPa Calm     90% 0.00 mm 0.00 W/m2
02:34 28.0 °C 26.0 °C 1007.1 hPa NW 4 km/h 8 km/h 90% 0.00 mm 0.00 W/m2
02:39 28.0 °C 26.0 °C 1007.5 hPa WNW 5 km/h 8 km/h 90% 0.00 mm 0.00 W/m2
02:44 28.0 °C 26.0 °C 1007.5 hPa Calm     90% 0.00 mm 0.00 W/m2
02:49 28.0 °C 26.0 °C 1007.5 hPa Calm     90% 0.00 mm 0.00 W/m2
02:54 28.0 °C 26.0 °C 1007.5 hPa Calm   4 km/h 90% 0.00 mm 0.00 W/m2
02:59 28.0 °C 26.0 °C 1007.5 hPa North 1 km/h 4 km/h 91% 0.00 mm 0.00 W/m2
03:04 27.0 °C 26.0 °C 1007.5 hPa North 4 km/h 8 km/h 91% 0.00 mm 0.00 W/m2
03:09 27.0 °C 26.0 °C 1007.8 hPa NNW 5 km/h 8 km/h 91% 0.00 mm 0.00 W/m2
03:14 27.0 °C 26.0 °C 1007.8 hPa North 6 km/h 8 km/h 91% 0.00 mm 0.00 W/m2
03:19 27.0 °C 26.0 °C 1007.8 hPa North 8 km/h 12 km/h 91% 0.00 mm 0.00 W/m2
03:24 27.0 °C 26.0 °C 1007.8 hPa Calm     92% 0.00 mm 0.00 W/m2
03:27 27.0 °C 26.0 °C 1007.5 hPa Calm     92% 0.00 mm 0.00 W/m2
03:34 27.0 °C 26.0 °C 1007.5 hPa Calm     92% 0.00 mm 0.00 W/m2
03:39 27.0 °C 26.0 °C 1007.5 hPa NW 1 km/h 4 km/h 92% 0.00 mm 0.00 W/m2
03:44 27.0 °C 26.0 °C 1007.5 hPa NW 1 km/h 4 km/h 93% 0.00 mm 0.00 W/m2
03:49 27.0 °C 26.0 °C 1007.5 hPa Calm     93% 0.00 mm 0.00 W/m2
03:54 27.0 °C 26.0 °C 1007.1 hPa Calm     93% 0.00 mm 0.00 W/m2
03:59 27.0 °C 26.0 °C 1007.1 hPa Calm     93% 0.00 mm 0.00 W/m2
04:04 27.0 °C 26.0 °C 1007.5 hPa NW 3 km/h 4 km/h 93% 1.78 mm 0.00 W/m2
04:09 27.0 °C 26.0 °C 1007.5 hPa WNW 2 km/h 4 km/h 93% 1.78 mm 0.00 W/m2
04:14 27.0 °C 26.0 °C 1007.5 hPa NNW 4 km/h 8 km/h 94% 1.78 mm 0.00 W/m2
04:19 27.0 °C 26.0 °C 1007.5 hPa NNW 2 km/h 4 km/h 94% 0.00 mm 0.00 W/m2
04:24 27.0 °C 26.0 °C 1007.5 hPa NNW 5 km/h 8 km/h 94% 0.00 mm 0.00 W/m2
04:29 27.0 °C 26.0 °C 1007.1 hPa Calm     94% 0.00 mm 0.00 W/m2
04:34 27.0 °C 26.0 °C 1007.1 hPa Calm   4 km/h 94% 0.00 mm 0.00 W/m2
04:39 27.0 °C 26.0 °C 1007.1 hPa Calm     94% 0.00 mm 0.00 W/m2
04:44 27.0 °C 26.0 °C 1007.1 hPa Calm     94% 0.00 mm 0.00 W/m2
04:49 27.0 °C 26.0 °C 1007.1 hPa Calm     94% 1.78 mm 0.00 W/m2
04:54 27.0 °C 26.0 °C 1007.1 hPa Calm     94% 1.78 mm 0.00 W/m2
04:59 27.0 °C 26.0 °C 1007.1 hPa Calm     95% 1.78 mm 0.00 W/m2
05:04 27.0 °C 26.0 °C 1007.1 hPa NW 5 km/h 8 km/h 95% 0.00 mm 0.00 W/m2
05:07 26.0 °C 25.0 °C 1007.1 hPa Calm     94% 0.00 mm 0.00 W/m2
05:14 26.0 °C 25.0 °C 1006.8 hPa Calm     94% 0.00 mm 0.00 W/m2
05:19 26.0 °C 25.0 °C 1006.9 hPa Calm     94% 0.00 mm 0.00 W/m2
05:24 26.0 °C 25.0 °C 1007.1 hPa Calm     93% 0.00 mm 0.00 W/m2
05:29 26.0 °C 25.0 °C 1007.0 hPa Calm     93% 0.00 mm 0.00 W/m2
05:34 26.0 °C 25.0 °C 1007.2 hPa Calm     92% 0.00 mm 1.50 W/m2
05:39 26.0 °C 25.0 °C 1007.4 hPa Calm     92% 0.00 mm 4.64 W/m2
05:44 26.0 °C 25.0 °C 1007.4 hPa Calm     92% 0.00 mm 6.87 W/m2
05:49 26.0 °C 25.0 °C 1007.6 hPa Calm     92% 0.00 mm 10.18 W/m2
05:54 26.0 °C 25.0 °C 1007.6 hPa Calm     92% 0.00 mm 16.37 W/m2
05:59 26.0 °C 25.0 °C 1007.5 hPa Calm     93% 0.00 mm 19.41 W/m2
06:04 26.0 °C 25.0 °C 1007.5 hPa Calm     92% 0.00 mm 23.09 W/m2
06:09 26.0 °C 25.0 °C 1007.5 hPa Calm     91% 0.00 mm 30.74 W/m2
06:14 26.0 °C 25.0 °C 1007.5 hPa Calm     90% 0.00 mm 43.56 W/m2
06:19 27.0 °C 25.0 °C 1007.5 hPa Calm     89% 0.00 mm 68.50 W/m2
06:24 27.0 °C 25.0 °C 1007.8 hPa Calm     88% 0.00 mm 111.69 W/m2
06:29 27.0 °C 25.0 °C 1007.8 hPa Calm     88% 0.00 mm 212.84 W/m2
06:34 27.0 °C 25.0 °C 1007.8 hPa Calm     86% 0.00 mm 220.32 W/m2
06:39 28.0 °C 25.0 °C 1007.8 hPa NNE 9 km/h 12 km/h 85% 0.00 mm 171.24 W/m2
06:44 27.0 °C 25.0 °C 1007.8 hPa North 12 km/h 16 km/h 86% 0.00 mm 99.58 W/m2
06:49 27.0 °C 25.0 °C 1007.8 hPa NNE 6 km/h 8 km/h 86% 0.00 mm 87.05 W/m2
06:53 27.0 °C 25.0 °C 1007.8 hPa ENE 5 km/h 8 km/h 86% 0.00 mm 83.16 W/m2
06:59 27.0 °C 25.0 °C 1008.0 hPa North 7 km/h 8 km/h 86% 0.00 mm 99.55 W/m2
07:04 28.0 °C 25.0 °C 1008.1 hPa Calm     86% 0.00 mm 123.11 W/m2
07:09 28.0 °C 25.0 °C 1007.9 hPa Calm     86% 0.00 mm 319.42 W/m2
07:14 28.0 °C 25.0 °C 1007.9 hPa Calm     85% 0.00 mm 155.46 W/m2
07:19 28.0 °C 25.0 °C 1007.9 hPa Calm     86% 0.00 mm 134.39 W/m2
07:24 28.0 °C 25.0 °C 1008.0 hPa Calm     86% 0.00 mm 171.51 W/m2
07:29 28.0 °C 25.0 °C 1008.0 hPa Calm     85% 0.00 mm 202.61 W/m2
07:34 28.0 °C 26.0 °C 1008.0 hPa Calm     85% 0.00 mm 203.73 W/m2
07:39 28.0 °C 26.0 °C 1007.9 hPa Calm     85% 0.00 mm 143.59 W/m2
07:44 29.0 °C 26.0 °C 1008.0 hPa Calm     85% 0.00 mm 133.54 W/m2
07:49 29.0 °C 26.0 °C 1008.0 hPa Calm     83% 0.00 mm 143.69 W/m2
07:54 29.0 °C 26.0 °C 1008.1 hPa Calm     82% 0.00 mm 143.72 W/m2
07:59 29.0 °C 26.0 °C 1008.3 hPa Calm     82% 0.00 mm 130.87 W/m2
08:04 30.0 °C 26.0 °C 1008.5 hPa Calm     81% 0.00 mm 129.01 W/m2
08:09 30.0 °C 26.0 °C 1008.8 hPa Calm     81% 0.00 mm 117.63 W/m2
08:14 30.0 °C 26.0 °C 1008.5 hPa Calm     81% 0.00 mm 106.60 W/m2
08:19 30.0 °C 26.0 °C 1008.8 hPa Calm     81% 0.00 mm 113.21 W/m2
08:24 30.0 °C 26.0 °C 1008.8 hPa Calm     81% 0.00 mm 118.91 W/m2
08:29 29.0 °C 26.0 °C 1008.8 hPa Calm     81% 0.00 mm 153.36 W/m2
08:34 30.0 °C 26.0 °C 1008.8 hPa Calm     81% 0.00 mm 195.51 W/m2
08:39 30.0 °C 26.0 °C 1008.8 hPa Calm     80% 0.00 mm 198.91 W/m2
08:44 30.0 °C 26.0 °C 1008.9 hPa Calm     80% 0.00 mm 255.68 W/m2
08:49 31.0 °C 26.0 °C 1008.8 hPa Calm     79% 0.00 mm 283.77 W/m2
08:54 31.0 °C 26.0 °C 1008.8 hPa Calm     78% 0.00 mm 297.49 W/m2
08:59 32.0 °C 27.0 °C 1008.8 hPa Calm     76% 0.00 mm 609.87 W/m2
09:04 33.0 °C 27.0 °C 1008.6 hPa Calm     75% 0.00 mm 575.51 W/m2
09:09 33.0 °C 27.0 °C 1008.5 hPa Calm     72% 0.00 mm 554.18 W/m2
09:14 32.0 °C 27.0 °C 1008.4 hPa Calm     74% 0.00 mm 495.43 W/m2
09:19 33.0 °C 27.0 °C 1008.4 hPa Calm     73% 0.00 mm 462.77 W/m2
09:24 32.0 °C 27.0 °C 1008.5 hPa Calm     74% 0.00 mm 343.54 W/m2
09:29 32.0 °C 27.0 °C 1008.3 hPa Calm     75% 0.00 mm 330.47 W/m2
09:34 32.0 °C 27.0 °C 1008.4 hPa Calm   4 km/h 74% 0.00 mm 230.55 W/m2
09:39 32.0 °C 26.0 °C 1008.4 hPa Calm     75% 0.00 mm 220.37 W/m2
09:44 31.0 °C 26.0 °C 1008.5 hPa Calm     75% 0.00 mm 199.99 W/m2
09:49 31.0 °C 26.0 °C 1008.5 hPa Calm     75% 0.00 mm 200.28 W/m2
09:54 31.0 °C 26.0 °C 1008.6 hPa Calm     75% 0.00 mm 175.96 W/m2
09:59 31.0 °C 26.0 °C 1008.7 hPa Calm     76% 0.00 mm 151.55 W/m2
10:04 31.0 °C 26.0 °C 1008.8 hPa Calm   4 km/h 77% 0.00 mm 104.40 W/m2
10:09 30.0 °C 26.0 °C 1008.9 hPa Calm   4 km/h 78% 0.00 mm 130.36 W/m2
10:14 30.0 °C 26.0 °C 1008.8 hPa Calm     78% 0.00 mm 136.16 W/m2
10:19 30.0 °C 26.0 °C 1008.9 hPa Calm     79% 0.00 mm 170.16 W/m2
10:24 30.0 °C 26.0 °C 1008.9 hPa South 10 km/h 12 km/h 80% 0.00 mm 154.16 W/m2
10:29 30.0 °C 26.0 °C 1008.9 hPa SSW 10 km/h 12 km/h 81% 0.00 mm 142.61 W/m2
10:34 30.0 °C 26.0 °C 1009.0 hPa West 4 km/h 8 km/h 82% 0.00 mm 158.45 W/m2
10:39 30.0 °C 27.0 °C 1009.0 hPa Calm     82% 0.00 mm 295.80 W/m2
10:44 30.0 °C 27.0 °C 1008.7 hPa Calm     83% 0.00 mm 210.54 W/m2
10:49 30.0 °C 27.0 °C 1008.9 hPa Calm     84% 0.00 mm 199.35 W/m2
10:54 30.0 °C 27.0 °C 1008.6 hPa Calm     83% 0.00 mm 234.71 W/m2
10:59 30.0 °C 27.0 °C 1008.5 hPa Calm     82% 0.00 mm 220.13 W/m2
11:04 30.0 °C 27.0 °C 1008.5 hPa Calm     80% 0.00 mm 200.92 W/m2
11:09 30.0 °C 26.0 °C 1008.8 hPa Calm   4 km/h 81% 0.00 mm 155.93 W/m2
11:14 30.0 °C 26.0 °C 1008.8 hPa Calm     81% 0.00 mm 142.81 W/m2
11:19 30.0 °C 26.0 °C 1008.5 hPa SSE 3 km/h 4 km/h 80% 0.00 mm 178.17 W/m2
11:24 30.0 °C 27.0 °C 1008.8 hPa Calm     80% 0.00 mm 187.59 W/m2
11:29 30.0 °C 26.0 °C 1008.8 hPa SSW 3 km/h 8 km/h 80% 0.00 mm 169.87 W/m2
11:34 30.0 °C 26.0 °C 1008.5 hPa Calm     79% 0.00 mm 188.93 W/m2
11:39 31.0 °C 26.0 °C 1008.5 hPa Calm     79% 0.00 mm 210.22 W/m2
11:44 30.0 °C 26.0 °C 1008.5 hPa Calm     78% 0.00 mm 204.44 W/m2
11:49 31.0 °C 26.0 °C 1008.5 hPa Calm     78% 0.00 mm 184.82 W/m2
11:54 31.0 °C 26.0 °C 1008.5 hPa Calm     79% 0.00 mm 177.75 W/m2
11:59 30.0 °C 26.0 °C 1008.5 hPa Calm     79% 0.00 mm 189.08 W/m2
12:04 31.0 °C 27.0 °C 1008.5 hPa Calm     79% 0.00 mm 356.29 W/m2
12:09 31.0 °C 27.0 °C 1008.1 hPa Calm     79% 0.00 mm 404.07 W/m2
12:14 31.0 °C 27.0 °C 1008.1 hPa Calm     79% 0.00 mm 373.27 W/m2
12:19 31.0 °C 27.0 °C 1008.1 hPa Calm     80% 0.00 mm 207.36 W/m2
12:24 31.0 °C 27.0 °C 1008.5 hPa NNW 1 km/h 4 km/h 80% 0.00 mm 114.11 W/m2
12:29 30.0 °C 26.0 °C 1007.8 hPa NW 16 km/h 24 km/h 82% 0.00 mm 82.06 W/m2
12:34 30.0 °C 26.0 °C 1007.8 hPa NW 15 km/h 20 km/h 83% 0.00 mm 68.20 W/m2
12:39 29.0 °C 26.0 °C 1007.8 hPa NNW 8 km/h 12 km/h 83% 0.00 mm 63.39 W/m2
12:44 30.0 °C 26.0 °C 1007.8 hPa North 12 km/h 16 km/h 84% 0.00 mm 53.14 W/m2
12:49 29.0 °C 26.0 °C 1008.1 hPa North 13 km/h 16 km/h 85% 0.00 mm 43.85 W/m2
12:54 29.0 °C 26.0 °C 1008.1 hPa North 18 km/h 24 km/h 87% 0.00 mm 30.33 W/m2
12:59 29.0 °C 26.0 °C 1007.8 hPa North 15 km/h 20 km/h 89% 0.00 mm 29.42 W/m2
13:04 28.0 °C 26.0 °C 1008.1 hPa North 21 km/h 28 km/h 90% 0.00 mm 26.53 W/m2
13:09 28.0 °C 26.0 °C 1008.1 hPa North 17 km/h 20 km/h 90% 0.00 mm 23.03 W/m2
13:14 27.0 °C 26.0 °C 1007.8 hPa North 16 km/h 24 km/h 90% 0.00 mm 22.74 W/m2
13:19 27.0 °C 25.0 °C 1007.8 hPa NNE 17 km/h 20 km/h 90% 0.00 mm 21.71 W/m2
13:24 27.0 °C 25.0 °C 1007.8 hPa NNE 10 km/h 12 km/h 90% 0.00 mm 20.40 W/m2
13:29 27.0 °C 25.0 °C 1007.8 hPa North 17 km/h 24 km/h 91% 0.00 mm 19.20 W/m2
13:34 27.0 °C 26.0 °C 1008.1 hPa NNE 9 km/h 12 km/h 92% 0.00 mm 17.71 W/m2
13:39 27.0 °C 26.0 °C 1008.1 hPa NNE 16 km/h 20 km/h 92% 0.00 mm 12.88 W/m2
13:44 27.0 °C 25.0 °C 1008.1 hPa North 12 km/h 16 km/h 91% 0.00 mm 17.33 W/m2
13:49 27.0 °C 25.0 °C 1007.8 hPa North 3 km/h 8 km/h 89% 0.00 mm 17.60 W/m2
13:54 27.0 °C 25.0 °C 1007.5 hPa Calm     88% 0.00 mm 17.27 W/m2
13:59 27.0 °C 25.0 °C 1007.5 hPa Calm     87% 0.00 mm 17.42 W/m2
14:04 27.0 °C 25.0 °C 1007.5 hPa Calm     87% 0.00 mm 17.71 W/m2
14:09 27.0 °C 25.0 °C 1007.5 hPa NNE 1 km/h 4 km/h 87% 0.00 mm 25.33 W/m2
14:14 27.0 °C 25.0 °C 1007.5 hPa Calm     88% 0.00 mm 28.25 W/m2
14:19 27.0 °C 24.0 °C 1007.5 hPa Calm     88% 0.00 mm 30.68 W/m2
14:24 27.0 °C 24.0 °C 1007.5 hPa NNE 8 km/h 12 km/h 88% 0.00 mm 32.49 W/m2
14:29 26.0 °C 24.0 °C 1007.5 hPa North 14 km/h 16 km/h 87% 0.00 mm 34.42 W/m2
14:39 27.0 °C 24.0 °C 1007.5 hPa Calm     87% 0.00 mm 44.78 W/m2
14:44 27.0 °C 24.0 °C 1007.1 hPa Calm     86% 0.00 mm 47.76 W/m2
14:49 27.0 °C 24.0 °C 1007.1 hPa Calm     85% 0.00 mm 48.17 W/m2
14:54 27.0 °C 24.0 °C 1007.1 hPa NNE 5 km/h 8 km/h 84% 0.00 mm 45.31 W/m2
14:59 27.0 °C 24.0 °C 1007.1 hPa NNE 4 km/h 4 km/h 84% 0.00 mm 42.65 W/m2
15:04 27.0 °C 24.0 °C 1006.8 hPa Calm     83% 0.00 mm 41.05 W/m2
15:09 27.0 °C 24.0 °C 1006.8 hPa NNE 5 km/h 8 km/h 83% 0.00 mm 40.87 W/m2
15:14 28.0 °C 24.0 °C 1006.4 hPa North 5 km/h 8 km/h 82% 0.00 mm 40.43 W/m2
15:19 27.0 °C 24.0 °C 1006.4 hPa North 2 km/h 4 km/h 81% 0.00 mm 39.94 W/m2
15:24 28.0 °C 24.0 °C 1006.4 hPa Calm     81% 0.00 mm 37.63 W/m2
15:29 28.0 °C 24.0 °C 1006.4 hPa Calm     81% 0.00 mm 35.85 W/m2
15:34 28.0 °C 24.0 °C 1006.8 hPa NNE 4 km/h 8 km/h 81% 0.00 mm 35.94 W/m2
15:39 28.0 °C 24.0 °C 1006.8 hPa North 6 km/h 8 km/h 82% 0.00 mm 38.91 W/m2
15:44 28.0 °C 24.0 °C 1007.1 hPa NNE 5 km/h 8 km/h 82% 0.00 mm 44.26 W/m2
15:49 28.0 °C 24.0 °C 1007.1 hPa Calm     82% 0.00 mm 52.38 W/m2
15:54 28.0 °C 24.0 °C 1006.8 hPa Calm     82% 0.00 mm 60.85 W/m2
15:59 28.0 °C 24.0 °C 1007.1 hPa Calm     81% 0.00 mm 67.36 W/m2
16:04 28.0 °C 25.0 °C 1006.8 hPa Calm     80% 0.00 mm 67.12 W/m2
16:09 29.0 °C 25.0 °C 1007.1 hPa ESE 2 km/h 4 km/h 79% 0.00 mm 72.23 W/m2
16:14 29.0 °C 24.0 °C 1007.1 hPa Calm     78% 0.00 mm 72.56 W/m2
16:19 29.0 °C 24.0 °C 1007.1 hPa NW 8 km/h 8 km/h 79% 0.00 mm 72.18 W/m2
16:24 28.0 °C 24.0 °C 1007.1 hPa North 12 km/h 16 km/h 79% 0.00 mm 71.12 W/m2
16:29 28.0 °C 24.0 °C 1007.1 hPa NNW 6 km/h 8 km/h 78% 0.00 mm 69.23 W/m2
16:34 28.0 °C 24.0 °C 1007.1 hPa Calm   4 km/h 77% 0.00 mm 63.18 W/m2
16:39 28.0 °C 24.0 °C 1007.1 hPa Calm     76% 0.00 mm 56.17 W/m2
16:44 29.0 °C 24.0 °C 1007.5 hPa Calm     76% 0.00 mm 49.11 W/m2
16:49 29.0 °C 24.0 °C 1007.5 hPa Calm     76% 0.00 mm 41.25 W/m2
16:54 29.0 °C 24.0 °C 1007.1 hPa Calm     77% 0.00 mm 47.24 W/m2
16:59 29.0 °C 24.0 °C 1007.1 hPa Calm     77% 0.00 mm 47.94 W/m2
17:04 29.0 °C 24.0 °C 1007.1 hPa Calm     77% 0.00 mm 46.65 W/m2
17:09 29.0 °C 24.0 °C 1007.1 hPa Calm     77% 0.00 mm 45.86 W/m2
17:14 29.0 °C 24.0 °C 1007.1 hPa Calm     77% 0.00 mm 42.16 W/m2
17:19 29.0 °C 24.0 °C 1007.5 hPa Calm     77% 0.00 mm 39.79 W/m2
17:24 29.0 °C 24.0 °C 1007.5 hPa Calm     77% 0.00 mm 35.58 W/m2
17:29 29.0 °C 24.0 °C 1007.5 hPa Calm     76% 0.00 mm 29.51 W/m2
17:34 29.0 °C 24.0 °C 1007.5 hPa Calm     76% 0.00 mm 25.51 W/m2
17:39 29.0 °C 24.0 °C 1007.5 hPa Calm     76% 0.00 mm 20.19 W/m2
17:44 29.0 °C 24.0 °C 1007.5 hPa Calm     76% 0.00 mm 14.00 W/m2
17:49 29.0 °C 24.0 °C 1007.5 hPa Calm     76% 0.00 mm 13.63 W/m2
17:54 29.0 °C 24.0 °C 1007.8 hPa Calm     76% 0.00 mm 13.17 W/m2
17:59 29.0 °C 24.0 °C 1007.8 hPa Calm     76% 0.00 mm 9.79 W/m2
18:04 29.0 °C 24.0 °C 1007.8 hPa Calm     77% 0.00 mm 6.08 W/m2
18:09 29.0 °C 24.0 °C 1007.8 hPa NW 5 km/h 8 km/h 78% 0.00 mm 4.85 W/m2
18:14 29.0 °C 25.0 °C 1007.8 hPa NW 6 km/h 8 km/h 79% 0.00 mm 3.36 W/m2
18:19 29.0 °C 25.0 °C 1007.5 hPa NW 4 km/h 4 km/h 79% 0.00 mm 1.82 W/m2
18:24 28.0 °C 25.0 °C 1007.8 hPa NW 7 km/h 8 km/h 80% 0.00 mm 0.00 W/m2
18:29 28.0 °C 25.0 °C 1007.8 hPa NNW 8 km/h 12 km/h 80% 0.00 mm 0.00 W/m2
18:34 28.0 °C 25.0 °C 1008.1 hPa North 4 km/h 8 km/h 80% 0.00 mm 0.00 W/m2
18:39 28.0 °C 25.0 °C 1007.8 hPa North 2 km/h 4 km/h 81% 0.00 mm 0.00 W/m2
18:44 28.0 °C 25.0 °C 1008.1 hPa North 3 km/h 8 km/h 82% 0.00 mm 0.00 W/m2
18:49 28.0 °C 25.0 °C 1008.1 hPa Calm     82% 0.00 mm 0.00 W/m2
18:54 28.0 °C 25.0 °C 1008.4 hPa NNW 5 km/h 8 km/h 82% 0.00 mm 0.00 W/m2
18:59 28.0 °C 25.0 °C 1008.6 hPa North 8 km/h 12 km/h 83% 0.00 mm 0.00 W/m2
19:04 28.0 °C 25.0 °C 1008.8 hPa North 14 km/h 16 km/h 87% 0.00 mm 0.00 W/m2
19:09 28.0 °C 25.0 °C 1008.8 hPa NNE 13 km/h 16 km/h 89% 0.00 mm 0.00 W/m2
19:14 27.0 °C 25.0 °C 1008.8 hPa NNE 12 km/h 16 km/h 90% 0.00 mm 0.00 W/m2
19:19 27.0 °C 25.0 °C 1008.8 hPa NNE 12 km/h 16 km/h 91% 0.00 mm 0.00 W/m2
19:24 27.0 °C 26.0 °C 1008.5 hPa NNE 10 km/h 16 km/h 92% 0.00 mm 0.00 W/m2
19:29 27.0 °C 26.0 °C 1008.5 hPa NNE 5 km/h 8 km/h 92% 0.00 mm 0.00 W/m2
19:34 27.0 °C 26.0 °C 1008.8 hPa NNE 10 km/h 12 km/h 92% 0.00 mm 0.00 W/m2
19:39 27.0 °C 25.0 °C 1008.8 hPa North 12 km/h 16 km/h 91% 0.00 mm 0.00 W/m2
19:44 27.0 °C 25.0 °C 1009.1 hPa Calm     91% 0.00 mm 0.00 W/m2
19:49 27.0 °C 25.0 °C 1009.0 hPa Calm     90% 0.00 mm 0.00 W/m2
19:54 27.0 °C 25.0 °C 1008.9 hPa Calm     88% 0.00 mm 0.00 W/m2
19:59 27.0 °C 25.0 °C 1008.9 hPa Calm     88% 0.00 mm 0.00 W/m2
20:04 27.0 °C 25.0 °C 1009.1 hPa NNE 4 km/h 8 km/h 87% 0.00 mm 0.00 W/m2
20:09 27.0 °C 25.0 °C 1009.1 hPa Calm     87% 0.00 mm 0.00 W/m2
20:14 27.0 °C 25.0 °C 1009.1 hPa Calm     87% 0.00 mm 0.00 W/m2
20:19 27.0 °C 25.0 °C 1009.1 hPa Calm     87% 0.00 mm 0.00 W/m2
20:24 27.0 °C 25.0 °C 1009.1 hPa Calm     87% 0.00 mm 0.00 W/m2
20:29 27.0 °C 25.0 °C 1009.1 hPa Calm     87% 0.00 mm 0.00 W/m2
20:34 27.0 °C 25.0 °C 1009.1 hPa Calm     87% 0.00 mm 0.00 W/m2
20:36 27.0 °C 24.0 °C 1009.0 hPa Calm     86% 0.00 mm 0.00 W/m2
20:44 27.0 °C 24.0 °C 1009.1 hPa Calm     86% 0.00 mm 0.00 W/m2
20:49 27.0 °C 25.0 °C 1009.5 hPa Calm     86% 0.00 mm 0.00 W/m2
20:54 27.0 °C 25.0 °C 1009.8 hPa Calm     86% 0.00 mm 0.00 W/m2
20:59 27.0 °C 25.0 °C 1009.8 hPa Calm     86% 0.00 mm 0.00 W/m2
21:04 27.0 °C 25.0 °C 1009.6 hPa Calm     86% 0.00 mm 0.00 W/m2
21:09 27.0 °C 25.0 °C 1009.5 hPa Calm     86% 0.00 mm 0.00 W/m2
21:14 27.0 °C 25.0 °C 1009.5 hPa Calm     87% 0.00 mm 0.00 W/m2
21:19 27.0 °C 25.0 °C 1009.5 hPa Calm     87% 0.00 mm 0.00 W/m2
21:24 27.0 °C 25.0 °C 1009.8 hPa Calm     87% 0.00 mm 0.00 W/m2
21:29 27.0 °C 25.0 °C 1009.8 hPa Calm     87% 0.00 mm 0.00 W/m2
21:34 27.0 °C 25.0 °C 1009.5 hPa Calm     87% 0.00 mm 0.00 W/m2
21:39 27.0 °C 25.0 °C 1009.5 hPa Calm     87% 0.00 mm 0.00 W/m2
21:44 27.0 °C 25.0 °C 1009.5 hPa Calm     88% 0.00 mm 0.00 W/m2
21:49 27.0 °C 25.0 °C 1009.5 hPa Calm     87% 0.00 mm 0.00 W/m2
21:54 27.0 °C 25.0 °C 1009.6 hPa Calm     87% 0.00 mm 0.00 W/m2
21:59 27.0 °C 25.0 °C 1009.6 hPa Calm     87% 0.00 mm 0.00 W/m2
22:04 27.0 °C 25.0 °C 1009.6 hPa Calm     86% 0.00 mm 0.00 W/m2
22:09 27.0 °C 25.0 °C 1009.8 hPa Calm     86% 0.00 mm 0.00 W/m2
22:14 27.0 °C 25.0 °C 1010.0 hPa Calm     86% 0.00 mm 0.00 W/m2
22:19 27.0 °C 25.0 °C 1009.9 hPa Calm     85% 0.00 mm 0.00 W/m2
22:24 27.0 °C 25.0 °C 1010.2 hPa Calm     85% 0.00 mm 0.00 W/m2
22:29 27.0 °C 25.0 °C 1010.2 hPa Calm     84% 0.00 mm 0.00 W/m2
22:34 27.0 °C 25.0 °C 1010.2 hPa Calm     84% 0.00 mm 0.00 W/m2
22:39 28.0 °C 25.0 °C 1010.5 hPa Calm     84% 0.00 mm 0.00 W/m2
22:44 28.0 °C 25.0 °C 1010.5 hPa Calm     84% 0.00 mm 0.00 W/m2
22:49 27.0 °C 25.0 °C 1010.6 hPa Calm     84% 0.00 mm 0.00 W/m2
22:54 27.0 °C 25.0 °C 1010.7 hPa Calm     84% 0.00 mm 0.00 W/m2
22:59 27.0 °C 25.0 °C 1010.5 hPa Calm     85% 0.00 mm 0.00 W/m2
23:09 27.0 °C 25.0 °C 1010.5 hPa Calm     86% 0.00 mm 0.00 W/m2
23:14 27.0 °C 25.0 °C 1010.7 hPa Calm     87% 0.00 mm 0.00 W/m2
23:19 27.0 °C 25.0 °C 1010.7 hPa Calm     89% 0.00 mm 0.00 W/m2
23:24 27.0 °C 25.0 °C 1010.5 hPa Calm     89% 0.00 mm 0.00 W/m2
23:29 27.0 °C 25.0 °C 1010.5 hPa Calm     89% 0.00 mm 0.00 W/m2
23:34 27.0 °C 25.0 °C 1010.2 hPa Calm     90% 0.00 mm 0.00 W/m2
23:39 27.0 °C 25.0 °C 1009.8 hPa Calm     91% 0.00 mm 0.00 W/m2
23:44 26.0 °C 25.0 °C 1009.8 hPa Calm     92% 0.00 mm 0.00 W/m2
23:49 26.0 °C 25.0 °C 1009.8 hPa Calm     92% 0.00 mm 0.00 W/m2
23:54 26.0 °C 25.0 °C 1009.5 hPa Calm     92% 0.00 mm 0.00 W/m2
PIMOHWEATHER Philippines
Compliments of Weather Underground - 2 mb